| time (UTC) | temp C | wind direction | speed KPH | gust KPH | rain 1hr cm | rain 24hr cm | rain mn cm | humidity % | barometer mb |
| 20260508125511 | 16 | 95 | 3.2 | 3.2 | 0.00 | 0.03 | 0.03 | 72 | 1001.4 |
| 20260508125008 | 15 | 78 | 0.0 | 1.6 | 0.00 | 0.03 | 0.03 | 77 | 1001.6 |
| 20260508124506 | 15 | 81 | 0.0 | 1.6 | 0.00 | 0.03 | 0.03 | 81 | 1001.3 |
| 20260508124003 | 14 | 107 | 1.6 | 1.6 | 0.00 | 0.03 | 0.03 | 85 | 1001.5 |
| 20260508123502 | 13 | 100 | 1.6 | 1.6 | 0.00 | 0.03 | 0.03 | 90 | 1001.4 |
| 20260508122958 | 13 | 100 | 1.6 | 1.6 | 0.00 | 0.03 | 0.03 | 90 | 1001.6 |
| 20260508122455 | 13 | 96 | 0.0 | 0.0 | 0.00 | 0.03 | 0.03 | 90 | 1001.5 |
| 20260508121952 | 12 | 99 | 0.0 | 0.0 | 0.00 | 0.03 | 0.03 | 94 | 1001.3 |
| 20260508121450 | 12 | 99 | 1.6 | 1.6 | 0.00 | 0.03 | 0.03 | 97 | 1001.3 |
| 20260508120948 | 11 | 97 | 0.0 | 0.0 | 0.00 | 0.03 | 0.03 | 99 | 1001.3 |
| 20260508120445 | 11 | 101 | 0.0 | 0.0 | 0.00 | 0.03 | 0.03 | 99 | 1001.2 |
| 20260508115943 | 11 | 95 | 0.0 | 0.0 | 0.00 | 0.03 | 0.03 | 99 | 1001.1 |
| 20260508115441 | 11 | 97 | 0.0 | 0.0 | 0.00 | 0.03 | 0.03 | 99 | 1000.9 |
| 20260508114937 | 10 | 95 | 0.0 | 0.0 | 0.00 | 0.03 | 0.03 | 99 | 1001.1 |
| 20260508114434 | 11 | 99 | 0.0 | 0.0 | 0.00 | 0.03 | 0.03 | 99 | 1001.0 |
| 20260508113930 | 11 | 98 | 0.0 | 0.0 | 0.00 | 0.03 | 0.03 | 99 | 1000.8 |
| 20260508113428 | 10 | 99 | 0.0 | 0.0 | 0.00 | 0.03 | 0.03 | 99 | 1000.7 |
| 20260508112925 | 10 | 96 | 0.0 | 0.0 | 0.00 | 0.03 | 0.03 | 99 | 1000.9 |
| 20260508112422 | 10 | 95 | 0.0 | 0.0 | 0.00 | 0.03 | 0.03 | 99 | 1000.7 |
| 20260508111918 | 9 | 95 | 0.0 | 0.0 | 0.00 | 0.03 | 0.03 | 99 | 1000.5 |
| 20260508111416 | 9 | 96 | 0.0 | 0.0 | 0.00 | 0.03 | 0.03 | 99 | 1000.6 |
| 20260508110913 | 8 | 95 | 0.0 | 0.0 | 0.00 | 0.03 | 0.03 | 99 | 1000.4 |
| 20260508110411 | 8 | 96 | 0.0 | 1.6 | 0.00 | 0.03 | 0.03 | 99 | 1000.5 |
| 20260508105910 | 8 | 90 | 0.0 | 0.0 | 0.00 | 0.03 | 0.03 | 99 | 1000.3 |
| 20260508105406 | 9 | 98 | 0.0 | 0.0 | 0.00 | 0.03 | 0.03 | 99 | 1000.3 |
| 20260508104904 | 9 | 98 | 0.0 | 0.0 | 0.00 | 0.03 | 0.03 | 99 | 1000.2 |
| 20260508104401 | 8 | 98 | 0.0 | 0.0 | 0.00 | 0.03 | 0.03 | 99 | 999.8 |
| 20260508103858 | 8 | 98 | 0.0 | 0.0 | 0.00 | 0.03 | 0.03 | 99 | 999.9 |
| 20260508103355 | 8 | 98 | 0.0 | 0.0 | 0.00 | 0.03 | 0.03 | 99 | 999.7 |
| 20260508102852 | 8 | 98 | 0.0 | 0.0 | 0.00 | 0.03 | 0.03 | 99 | 999.7 |
| 20260508102350 | 9 | 98 | 0.0 | 0.0 | 0.00 | 0.03 | 0.03 | 99 | 999.5 |
| 20260508101847 | 8 | 98 | 0.0 | 0.0 | 0.00 | 0.03 | 0.03 | 99 | 999.6 |
| 20260508101344 | 8 | 98 | 0.0 | 0.0 | 0.00 | 0.03 | 0.03 | 99 | 999.3 |
| 20260508100842 | 8 | 99 | 0.0 | 0.0 | 0.00 | 0.03 | 0.03 | 99 | 999.5 |
| 20260508100341 | 8 | 99 | 0.0 | 0.0 | 0.00 | 0.03 | 0.03 | 99 | 999.5 |
| 20260508095836 | 9 | 96 | 0.0 | 0.0 | 0.00 | 0.03 | 0.03 | 99 | 999.4 |
| 20260508095334 | 9 | 96 | 0.0 | 0.0 | 0.00 | 0.03 | 0.03 | 99 | 999.1 |
| 20260508094831 | 10 | 97 | 0.0 | 0.0 | 0.00 | 0.03 | 0.03 | 99 | 999.3 |
| 20260508094327 | 9 | 96 | 0.0 | 0.0 | 0.00 | 0.03 | 0.03 | 99 | 999.3 |
| 20260508093824 | 9 | 97 | 1.6 | 1.6 | 0.00 | 0.03 | 0.03 | 99 | 999.3 |
| 20260508093322 | 9 | 98 | 0.0 | 0.0 | 0.00 | 0.03 | 0.03 | 99 | 999.4 |
| 20260508092819 | 9 | 102 | 0.0 | 0.0 | 0.00 | 0.03 | 0.03 | 99 | 999.3 |
| 20260508092317 | 10 | 107 | 0.0 | 1.6 | 0.00 | 0.03 | 0.03 | 99 | 999.1 |
| 20260508091815 | 9 | 97 | 0.0 | 0.0 | 0.00 | 0.03 | 0.03 | 99 | 999.1 |
| 20260508091311 | 10 | 97 | 0.0 | 0.0 | 0.00 | 0.03 | 0.03 | 99 | 999.1 |
| 20260508090809 | 10 | 97 | 0.0 | 0.0 | 0.00 | 0.03 | 0.03 | 99 | 999.1 |
| 20260508090307 | 10 | 97 | 0.0 | 0.0 | 0.00 | 0.03 | 0.03 | 99 | 999.1 |
| 20260508085803 | 10 | 97 | 0.0 | 0.0 | 0.00 | 0.03 | 0.03 | 99 | 999.1 |
| 20260508085300 | 10 | 97 | 0.0 | 0.0 | 0.00 | 0.03 | 0.03 | 99 | 999.0 |
| 20260508084755 | 10 | 98 | 0.0 | 0.0 | 0.00 | 0.03 | 0.03 | 99 | 999.1 |
| 20260508084253 | 10 | 88 | 0.0 | 0.0 | 0.00 | 0.03 | 0.03 | 99 | 998.9 |
| 20260508083750 | 11 | 87 | 0.0 | 0.0 | 0.00 | 0.03 | 0.03 | 99 | 998.7 |
| 20260508083248 | 11 | 87 | 0.0 | 0.0 | 0.00 | 0.03 | 0.03 | 99 | 999.0 |
| 20260508082747 | 11 | 88 | 0.0 | 0.0 | 0.00 | 0.03 | 0.03 | 99 | 998.8 |
| 20260508082246 | 11 | 88 | 0.0 | 0.0 | 0.00 | 0.03 | 0.03 | 99 | 999.0 |
| 20260508081742 | 11 | 89 | 0.0 | 0.0 | 0.00 | 0.03 | 0.03 | 99 | 998.7 |
| 20260508081239 | 11 | 89 | 0.0 | 0.0 | 0.00 | 0.03 | 0.03 | 99 | 998.8 |
| 20260508080736 | 11 | 87 | 0.0 | 0.0 | 0.00 | 0.03 | 0.03 | 99 | 998.6 |
| 20260508080235 | 11 | 90 | 0.0 | 0.0 | 0.00 | 0.03 | 0.03 | 99 | 998.3 |
| 20260508075731 | 10 | 97 | 0.0 | 0.0 | 0.00 | 0.03 | 0.03 | 99 | 998.5 |
| 20260508075228 | 10 | 97 | 0.0 | 0.0 | 0.00 | 0.03 | 0.03 | 99 | 998.3 |
| 20260508074725 | 11 | 96 | 0.0 | 0.0 | 0.00 | 0.03 | 0.03 | 99 | 998.5 |
| 20260508074223 | 10 | 97 | 0.0 | 0.0 | 0.00 | 0.03 | 0.03 | 99 | 998.5 |
| 20260508073719 | 11 | 97 | 0.0 | 0.0 | 0.00 | 0.03 | 0.03 | 99 | 998.5 |
| 20260508073217 | 10 | 97 | 0.0 | 0.0 | 0.00 | 0.03 | 0.03 | 99 | 998.4 |
| 20260508072713 | 10 | 98 | 0.0 | 0.0 | 0.00 | 0.03 | 0.03 | 99 | 998.5 |
| 20260508072210 | 11 | 98 | 0.0 | 0.0 | 0.00 | 0.03 | 0.03 | 99 | 998.5 |
| 20260508071708 | 11 | 98 | 0.0 | 0.0 | 0.00 | 0.03 | 0.03 | 99 | 998.5 |
| 20260508071206 | 11 | 97 | 0.0 | 0.0 | 0.00 | 0.03 | 0.03 | 99 | 998.2 |
| 20260508070703 | 11 | 99 | 0.0 | 0.0 | 0.00 | 0.03 | 0.03 | 99 | 998.3 |
| 20260508070201 | 11 | 99 | 0.0 | 0.0 | 0.00 | 0.03 | 0.03 | 99 | 998.4 |
| 20260508065658 | 11 | 100 | 0.0 | 0.0 | 0.00 | 0.03 | 0.03 | 99 | 998.2 |
| 20260508065156 | 11 | 92 | 0.0 | 0.0 | 0.00 | 0.03 | 0.03 | 99 | 998.4 |
| 20260508064653 | 12 | 92 | 0.0 | 0.0 | 0.00 | 0.03 | 0.03 | 99 | 998.2 |
| 20260508064152 | 12 | 92 | 0.0 | 0.0 | 0.00 | 0.03 | 0.03 | 99 | 998.2 |
| 20260508063649 | 12 | 92 | 0.0 | 0.0 | 0.00 | 0.03 | 0.03 | 99 | 998.4 |
| 20260508063146 | 12 | 92 | 0.0 | 0.0 | 0.00 | 0.03 | 0.03 | 99 | 998.1 |
| 20260508062644 | 12 | 92 | 0.0 | 0.0 | 0.00 | 0.03 | 0.03 | 99 | 998.2 |
| 20260508062140 | 11 | 93 | 0.0 | 0.0 | 0.00 | 0.03 | 0.03 | 99 | 998.3 |
| 20260508061638 | 11 | 93 | 0.0 | 0.0 | 0.00 | 0.03 | 0.03 | 99 | 998.4 |
| 20260508061135 | 12 | 93 | 0.0 | 0.0 | 0.00 | 0.03 | 0.03 | 99 | 998.3 |
| 20260508060631 | 12 | 92 | 0.0 | 0.0 | 0.00 | 0.03 | 0.03 | 99 | 998.2 |
| 20260508060129 | 12 | 92 | 0.0 | 0.0 | 0.00 | 0.03 | 0.03 | 99 | 998.2 |
| 20260508055624 | 12 | 94 | 0.0 | 0.0 | 0.00 | 0.03 | 0.03 | 99 | 998.3 |
| 20260508055122 | 12 | 95 | 0.0 | 0.0 | 0.00 | 0.03 | 0.03 | 99 | 998.5 |
| 20260508054618 | 12 | 95 | 0.0 | 0.0 | 0.00 | 0.03 | 0.03 | 99 | 998.4 |
| 20260508054116 | 12 | 95 | 0.0 | 0.0 | 0.00 | 0.03 | 0.03 | 99 | 998.2 |
| 20260508053612 | 12 | 95 | 0.0 | 0.0 | 0.00 | 0.03 | 0.03 | 99 | 998.2 |
| 20260508053110 | 12 | 94 | 0.0 | 0.0 | 0.00 | 0.03 | 0.03 | 99 | 998.0 |
| 20260508052607 | 12 | 95 | 0.0 | 0.0 | 0.00 | 0.03 | 0.03 | 99 | 998.2 |
| 20260508052104 | 12 | 94 | 0.0 | 0.0 | 0.00 | 0.03 | 0.03 | 99 | 998.1 |
| 20260508051600 | 13 | 91 | 0.0 | 0.0 | 0.18 | 0.03 | 0.03 | 99 | 998.0 |
| 20260508051056 | 13 | 90 | 0.0 | 0.0 | 0.18 | 0.03 | 0.03 | 99 | 998.0 |
| 20260508050552 | 13 | 91 | 0.0 | 0.0 | 0.00 | 0.00 | 0.00 | 99 | 998.1 |
| 20260508050050 | 12 | 94 | 0.0 | 0.0 | 0.00 | 0.00 | 0.00 | 99 | 998.4 |
| 20260508045546 | 13 | 88 | 0.0 | 0.0 | 0.00 | 0.00 | 0.00 | 99 | 998.0 |
| 20260508045044 | 13 | 88 | 0.0 | 0.0 | 0.00 | 0.00 | 0.00 | 99 | 998.2 |
| 20260508044540 | 13 | 88 | 0.0 | 0.0 | 0.00 | 0.00 | 0.00 | 99 | 997.9 |
| 20260508044036 | 13 | 88 | 0.0 | 0.0 | 0.00 | 0.00 | 0.00 | 99 | 998.0 |
| 20260508043533 | 12 | 88 | 0.0 | 0.0 | 0.00 | 0.00 | 0.00 | 99 | 997.8 |
| 20260508043031 | 13 | 88 | 0.0 | 0.0 | 0.00 | 0.00 | 0.00 | 99 | 997.9 |
| 20260508042527 | 13 | 85 | 0.0 | 0.0 | 0.00 | 0.00 | 0.00 | 99 | 997.8 |
| 20260508042025 | 14 | 89 | 0.0 | 0.0 | 0.00 | 0.00 | 0.00 | 99 | 998.0 |
| 20260508041521 | 13 | 89 | 0.0 | 0.0 | 0.00 | 0.00 | 0.00 | 99 | 997.7 |
| 20260508041018 | 13 | 93 | 0.0 | 0.0 | 0.00 | 0.00 | 0.00 | 99 | 997.7 |
| 20260508040515 | 13 | 104 | 0.0 | 0.0 | 0.00 | 0.00 | 0.00 | 99 | 997.9 |
| 20260508040012 | 13 | 97 | 0.0 | 0.0 | 0.00 | 3.81 | 3.81 | 99 | 997.7 |
| 20260508035509 | 13 | 98 | 0.0 | 0.0 | 0.00 | 3.81 | 3.81 | 99 | 997.8 |
| 20260508035006 | 13 | 96 | 0.0 | 0.0 | 0.00 | 3.81 | 3.81 | 99 | 997.7 |
| 20260508034503 | 13 | 91 | 0.0 | 0.0 | 0.00 | 3.81 | 3.81 | 99 | 997.6 |
| 20260508034000 | 13 | 87 | 0.0 | 0.0 | 0.00 | 3.81 | 3.81 | 99 | 997.8 |
| 20260508033458 | 14 | 87 | 0.0 | 0.0 | 0.00 | 3.81 | 3.81 | 99 | 997.6 |
| 20260508032955 | 14 | 87 | 0.0 | 0.0 | 0.00 | 3.81 | 3.81 | 99 | 997.8 |
| 20260508032452 | 13 | 87 | 0.0 | 0.0 | 0.00 | 3.81 | 3.81 | 99 | 997.7 |
| 20260508031949 | 14 | 83 | 0.0 | 0.0 | 0.00 | 3.81 | 3.81 | 99 | 997.7 |
| 20260508031447 | 14 | 89 | 0.0 | 0.0 | 0.00 | 3.81 | 3.81 | 99 | 997.6 |
| 20260508030942 | 15 | 88 | 0.0 | 0.0 | 0.00 | 3.81 | 3.81 | 99 | 997.6 |
| 20260508030439 | 14 | 89 | 0.0 | 0.0 | 0.00 | 3.81 | 3.81 | 99 | 997.7 |
| 20260508025936 | 14 | 89 | 0.0 | 0.0 | 0.00 | 3.81 | 3.81 | 99 | 997.6 |
| 20260508025433 | 14 | 89 | 0.0 | 0.0 | 0.00 | 3.81 | 3.81 | 99 | 997.7 |
| 20260508024930 | 13 | 90 | 0.0 | 0.0 | 0.00 | 3.81 | 3.81 | 99 | 997.5 |
| 20260508024426 | 13 | 88 | 0.0 | 0.0 | 0.00 | 3.81 | 3.81 | 99 | 997.7 |
| 20260508023923 | 14 | 89 | 0.0 | 0.0 | 0.00 | 3.81 | 3.81 | 99 | 997.3 |
| 20260508023420 | 13 | 101 | 0.0 | 0.0 | 0.00 | 3.81 | 3.81 | 99 | 997.5 |
| 20260508022917 | 13 | 108 | 1.6 | 1.6 | 0.00 | 3.81 | 3.81 | 99 | 997.4 |
| 20260508022413 | 14 | 84 | 0.0 | 0.0 | 0.00 | 3.81 | 3.81 | 99 | 997.3 |
| 20260508021910 | 13 | 98 | 0.0 | 0.0 | 0.00 | 3.81 | 3.81 | 99 | 997.1 |
| 20260508021406 | 14 | 86 | 0.0 | 0.0 | 0.00 | 3.81 | 3.81 | 99 | 996.8 |
| 20260508020902 | 14 | 93 | 0.0 | 0.0 | 0.00 | 3.81 | 3.81 | 99 | 996.7 |
| 20260508020400 | 14 | 94 | 0.0 | 0.0 | 0.00 | 3.81 | 3.81 | 99 | 996.7 |
| 20260508015856 | 14 | 93 | 0.0 | 0.0 | 0.00 | 3.81 | 3.81 | 99 | 996.7 |
| 20260508015354 | 14 | 96 | 0.0 | 0.0 | 0.00 | 3.81 | 3.81 | 99 | 996.7 |
| 20260508014850 | 13 | 100 | 0.0 | 0.0 | 0.00 | 3.81 | 3.81 | 99 | 996.9 |
| 20260508014348 | 13 | 100 | 0.0 | 0.0 | 0.00 | 3.81 | 3.81 | 99 | 996.8 |
| 20260508013843 | 14 | 93 | 1.6 | 1.6 | 0.00 | 3.81 | 3.81 | 99 | 996.7 |
| 20260508013340 | 15 | 89 | 0.0 | 0.0 | 0.00 | 3.81 | 3.81 | 99 | 996.5 |
| 20260508012837 | 15 | 89 | 0.0 | 0.0 | 0.00 | 3.81 | 3.81 | 99 | 996.4 |
| 20260508012334 | 14 | 89 | 0.0 | 0.0 | 0.00 | 3.81 | 3.81 | 99 | 996.4 |
| 20260508011832 | 13 | 89 | 0.0 | 0.0 | 0.00 | 3.81 | 3.81 | 99 | 996.4 |
| 20260508011330 | 13 | 95 | 0.0 | 0.0 | 0.00 | 3.81 | 3.81 | 99 | 996.5 |
| 20260508010826 | 13 | 106 | 0.0 | 0.0 | 0.00 | 3.81 | 3.81 | 99 | 996.2 |
| 20260508010324 | 13 | 96 | 0.0 | 0.0 | 0.00 | 3.81 | 3.81 | 99 | 996.0 |
| 20260508005821 | 14 | 86 | 0.0 | 0.0 | 0.00 | 3.81 | 3.81 | 99 | 996.0 |
| 20260508005318 | 13 | 86 | 0.0 | 0.0 | 0.00 | 3.81 | 3.81 | 99 | 995.6 |
| 20260508004814 | 13 | 84 | 0.0 | 0.0 | 0.00 | 3.81 | 3.81 | 99 | 995.6 |
| 20260508004310 | 13 | 93 | 0.0 | 0.0 | 0.00 | 3.81 | 3.81 | 99 | 995.6 |
| 20260508003807 | 13 | 86 | 0.0 | 1.6 | 0.00 | 3.81 | 3.81 | 99 | 995.4 |
| 20260508003305 | 14 | 88 | 0.0 | 0.0 | 0.00 | 3.81 | 3.81 | 99 | 995.5 |
| 20260508002801 | 14 | 82 | 1.6 | 3.2 | 0.00 | 3.81 | 3.81 | 99 | 995.1 |
| 20260508002258 | 13 | 86 | 0.0 | 1.6 | 0.00 | 3.81 | 3.81 | 99 | 995.1 |
| 20260508001754 | 13 | 83 | 1.6 | 1.6 | 0.00 | 3.81 | 3.81 | 99 | 995.2 |
| 20260508001249 | 13 | 82 | 0.0 | 0.0 | 0.00 | 3.81 | 3.81 | 99 | 994.9 |
| 20260508000746 | 13 | 90 | 0.0 | 0.0 | 0.00 | 3.81 | 3.81 | 99 | 995.0 |
| 20260508000243 | 13 | 95 | 0.0 | 1.6 | 0.00 | 3.81 | 3.81 | 99 | 994.8 |
| 20260507235739 | 14 | 85 | 0.0 | 1.6 | 0.00 | 3.81 | 3.81 | 99 | 994.4 |
| 20260507235237 | 14 | 76 | 0.0 | 0.0 | 0.00 | 3.81 | 3.81 | 99 | 994.2 |
| 20260507234734 | 14 | 84 | 0.0 | 0.0 | 0.00 | 3.81 | 3.81 | 99 | 994.3 |
| 20260507234230 | 14 | 82 | 0.0 | 0.0 | 0.00 | 3.81 | 3.81 | 99 | 994.6 |
| 20260507233727 | 14 | 87 | 0.0 | 0.0 | 0.00 | 3.81 | 3.81 | 99 | 994.3 |
| 20260507233225 | 14 | 70 | 1.6 | 3.2 | 0.00 | 3.81 | 3.81 | 99 | 994.2 |
| 20260507232722 | 14 | 88 | 4.8 | 8.0 | 0.00 | 3.81 | 3.81 | 99 | 994.4 |
| 20260507232219 | 15 | 87 | 0.0 | 0.0 | 0.00 | 3.81 | 3.81 | 99 | 994.3 |
| 20260507231715 | 15 | 86 | 0.0 | 0.0 | 0.00 | 3.81 | 3.81 | 99 | 994.0 |
| 20260507231213 | 15 | 86 | 0.0 | 0.0 | 0.00 | 3.81 | 3.81 | 99 | 993.8 |
| 20260507230709 | 15 | 93 | 0.0 | 1.6 | 0.13 | 3.81 | 3.81 | 99 | 993.8 |
| 20260507230207 | 15 | 96 | 3.2 | 3.2 | 0.30 | 3.81 | 3.81 | 99 | 993.6 |
| 20260507225706 | 15 | 76 | 3.2 | 4.8 | 0.43 | 3.81 | 3.81 | 99 | 993.7 |
| 20260507225203 | 15 | 101 | 0.0 | 1.6 | 0.30 | 3.76 | 3.76 | 99 | 993.9 |
| 20260507224658 | 14 | 81 | 1.6 | 1.6 | 0.66 | 3.73 | 3.73 | 99 | 994.0 |
| 20260507224155 | 15 | 87 | 0.0 | 1.6 | 0.79 | 3.71 | 3.71 | 99 | 993.9 |
| 20260507223651 | 14 | 78 | 1.6 | 3.2 | 0.89 | 3.66 | 3.66 | 99 | 993.9 |
| 20260507223148 | 15 | 81 | 1.6 | 3.2 | 1.98 | 3.58 | 3.58 | 99 | 993.9 |
| 20260507222645 | 15 | 90 | 1.6 | 1.6 | 2.95 | 3.51 | 3.51 | 99 | 993.9 |
| 20260507222141 | 15 | 90 | 1.6 | 1.6 | 2.16 | 3.28 | 3.28 | 99 | 993.7 |
| 20260507221638 | 15 | 74 | 1.6 | 1.6 | 1.50 | 3.02 | 3.02 | 99 | 993.5 |
| 20260507221134 | 15 | 74 | 6.4 | 9.7 | 2.39 | 2.92 | 2.92 | 98 | 993.3 |
| 20260507220632 | 15 | 57 | 1.6 | 3.2 | 2.46 | 2.77 | 2.77 | 97 | 992.5 |
| 20260507220130 | 16 | 107 | 1.6 | 1.6 | 0.89 | 2.49 | 2.49 | 97 | 992.8 |
| 20260507215625 | 16 | 88 | 1.6 | 1.6 | 0.43 | 2.36 | 2.36 | 95 | 992.9 |
| 20260507215123 | 16 | 81 | 1.6 | 1.6 | 0.13 | 2.31 | 2.31 | 94 | 992.0 |
| 20260507214620 | 16 | 100 | 1.6 | 1.6 | 0.00 | 2.29 | 2.29 | 93 | 992.1 |
| 20260507214116 | 17 | 84 | 1.6 | 1.6 | 0.00 | 2.29 | 2.29 | 92 | 991.8 |
| 20260507213612 | 17 | 75 | 1.6 | 3.2 | 0.00 | 2.29 | 2.29 | 90 | 991.5 |
| 20260507213110 | 17 | 49 | 1.6 | 3.2 | 0.00 | 2.29 | 2.29 | 87 | 991.6 |
| 20260507212606 | 18 | 70 | 1.6 | 3.2 | 0.00 | 2.29 | 2.29 | 87 | 991.8 |
| 20260507212102 | 18 | 85 | 3.2 | 4.8 | 0.00 | 2.29 | 2.29 | 86 | 992.1 |
| 20260507211559 | 18 | 82 | 3.2 | 3.2 | 0.00 | 2.29 | 2.29 | 84 | 992.0 |
| 20260507211055 | 20 | 58 | 1.6 | 3.2 | 0.00 | 2.29 | 2.29 | 83 | 992.1 |
| 20260507210553 | 21 | 72 | 6.4 | 9.7 | 0.00 | 2.29 | 2.29 | 79 | 991.6 |
| 20260507210049 | 26 | 138 | 11.3 | 16.1 | 0.00 | 2.29 | 2.29 | 72 | 991.4 |
| 20260507205546 | 26 | 104 | 0.0 | 1.6 | 0.00 | 2.29 | 2.29 | 66 | 991.0 |
| 20260507205042 | 26 | 78 | 1.6 | 1.6 | 0.00 | 2.29 | 2.29 | 64 | 991.0 |
| 20260507204539 | 25 | 102 | 0.0 | 1.6 | 0.00 | 2.29 | 2.29 | 68 | 991.0 |
| 20260507204036 | 25 | 110 | 0.0 | 0.0 | 0.00 | 2.29 | 2.29 | 69 | 991.2 |
| 20260507203534 | 25 | 112 | 1.6 | 1.6 | 0.00 | 2.29 | 2.29 | 70 | 990.9 |
| 20260507203031 | 26 | 106 | 3.2 | 3.2 | 0.00 | 2.29 | 2.29 | 68 | 991.0 |
| 20260507202527 | 26 | 127 | 3.2 | 4.8 | 0.00 | 2.29 | 2.29 | 69 | 990.9 |
| 20260507202023 | 26 | 200 | 3.2 | 3.2 | 0.00 | 2.29 | 2.29 | 70 | 990.6 |
| 20260507201519 | 25 | 96 | 0.0 | 1.6 | 0.00 | 2.29 | 2.29 | 71 | 990.8 |
| 20260507201015 | 25 | 123 | 1.6 | 1.6 | 0.00 | 2.29 | 2.29 | 71 | 990.7 |
| 20260507200511 | 25 | 123 | 4.8 | 8.0 | 0.00 | 2.29 | 2.29 | 71 | 991.1 |
| 20260507200007 | 25 | 121 | 4.8 | 4.8 | 0.00 | 2.29 | 2.29 | 72 | 991.3 |
| 20260507195504 | 25 | 205 | 1.6 | 3.2 | 0.00 | 2.29 | 2.29 | 74 | 991.3 |
| 20260507195002 | 25 | 193 | 4.8 | 8.0 | 0.00 | 2.29 | 2.29 | 73 | 991.5 |
| 20260507194458 | 25 | 125 | 3.2 | 8.0 | 0.00 | 2.29 | 2.29 | 74 | 991.5 |
| 20260507193954 | 25 | 187 | 6.4 | 8.0 | 0.00 | 2.29 | 2.29 | 75 | 991.5 |
| 20260507193452 | 24 | 115 | 1.6 | 1.6 | 0.00 | 2.29 | 2.29 | 75 | 991.4 |
| 20260507192948 | 25 | 147 | 3.2 | 4.8 | 0.00 | 2.29 | 2.29 | 74 | 991.6 |
| 20260507192444 | 25 | 119 | 1.6 | 1.6 | 0.00 | 2.29 | 2.29 | 76 | 991.7 |
| 20260507191942 | 26 | 103 | 3.2 | 3.2 | 0.00 | 2.29 | 2.29 | 73 | 991.7 |
| 20260507191437 | 25 | 128 | 1.6 | 3.2 | 0.00 | 2.29 | 2.29 | 76 | 991.7 |
| 20260507190934 | 25 | 56 | 0.0 | 1.6 | 0.00 | 2.29 | 2.29 | 77 | 992.0 |
| 20260507190432 | 24 | 128 | 1.6 | 3.2 | 0.00 | 2.29 | 2.29 | 82 | 992.1 |
| 20260507185931 | 23 | 105 | 0.0 | 1.6 | 0.00 | 2.29 | 2.29 | 81 | 992.2 |
| 20260507185427 | 23 | 104 | 1.6 | 1.6 | 0.00 | 2.29 | 2.29 | 80 | 992.0 |
| 20260507184924 | 24 | 119 | 3.2 | 3.2 | 0.00 | 2.29 | 2.29 | 81 | 992.0 |
| 20260507184422 | 24 | 234 | 9.7 | 11.3 | 0.00 | 2.29 | 2.29 | 81 | 992.0 |
| 20260507183919 | 23 | 96 | 1.6 | 1.6 | 0.00 | 2.29 | 2.29 | 87 | 991.9 |
| 20260507183416 | 23 | 128 | 1.6 | 3.2 | 0.00 | 2.29 | 2.29 | 88 | 992.1 |
| 20260507182914 | 22 | 102 | 1.6 | 1.6 | 0.00 | 2.29 | 2.29 | 85 | 992.0 |
| 20260507182409 | 22 | 98 | 0.0 | 0.0 | 0.00 | 2.29 | 2.29 | 92 | 992.1 |
| 20260507181906 | 21 | 43 | 1.6 | 3.2 | 0.00 | 2.29 | 2.29 | 94 | 992.1 |
| 20260507181402 | 21 | 107 | 0.0 | 1.6 | 0.00 | 2.29 | 2.29 | 94 | 992.3 |
| 20260507180859 | 21 | 121 | 1.6 | 3.2 | 0.00 | 2.29 | 2.29 | 92 | 992.4 |
| 20260507180355 | 21 | 82 | 1.6 | 1.6 | 0.00 | 2.29 | 2.29 | 94 | 992.5 |
| 20260507175851 | 21 | 112 | 1.6 | 1.6 | 0.00 | 2.29 | 2.29 | 96 | 992.5 |
| 20260507175348 | 20 | 109 | 1.6 | 1.6 | 0.00 | 2.29 | 2.29 | 96 | 992.8 |
| 20260507174846 | 21 | 94 | 0.0 | 1.6 | 0.00 | 2.29 | 2.29 | 97 | 992.9 |
| 20260507174343 | 21 | 87 | 0.0 | 0.0 | 0.00 | 2.29 | 2.29 | 98 | 992.8 |
| 20260507173841 | 20 | 101 | 0.0 | 1.6 | 0.00 | 2.29 | 2.29 | 98 | 992.8 |
| 20260507173337 | 21 | 91 | 0.0 | 0.0 | 0.00 | 2.29 | 2.29 | 99 | 992.3 |
| 20260507172833 | 20 | 79 | 1.6 | 1.6 | 0.00 | 2.29 | 2.29 | 99 | 992.2 |
| 20260507172331 | 20 | 106 | 1.6 | 1.6 | 0.00 | 2.29 | 2.29 | 99 | 992.9 |
| 20260507171826 | 20 | 84 | 0.0 | 1.6 | 0.00 | 2.29 | 2.29 | 99 | 993.1 |
| 20260507171323 | 20 | 92 | 0.0 | 0.0 | 0.00 | 2.29 | 2.29 | 99 | 993.0 |
| 20260507170820 | 20 | 96 | 1.6 | 1.6 | 0.00 | 2.29 | 2.29 | 99 | 993.0 |
| 20260507170317 | 20 | 106 | 0.0 | 1.6 | 0.00 | 2.29 | 2.29 | 99 | 992.7 |
| 20260507165813 | 20 | 127 | 1.6 | 1.6 | 0.00 | 2.29 | 2.29 | 99 | 992.7 |
| 20260507165309 | 20 | 102 | 0.0 | 1.6 | 0.00 | 2.29 | 2.29 | 99 | 992.7 |
| 20260507164805 | 20 | 100 | 0.0 | 1.6 | 0.00 | 2.29 | 2.29 | 99 | 992.5 |
| 20260507164302 | 20 | 112 | 1.6 | 1.6 | 0.00 | 2.29 | 2.29 | 99 | 992.9 |
| 20260507163759 | 20 | 118 | 1.6 | 1.6 | 0.00 | 2.29 | 2.29 | 99 | 993.3 |
| 20260507163257 | 20 | 102 | 0.0 | 0.0 | 0.00 | 2.29 | 2.29 | 99 | 993.5 |
| 20260507162753 | 20 | 84 | 0.0 | 1.6 | 0.00 | 2.29 | 2.29 | 99 | 993.5 |
| 20260507162249 | 20 | 133 | 0.0 | 1.6 | 0.00 | 2.29 | 2.29 | 99 | 993.4 |
| 20260507161746 | 20 | 84 | 0.0 | 0.0 | 0.00 | 2.29 | 2.29 | 99 | 993.2 |
| 20260507161243 | 20 | 101 | 0.0 | 0.0 | 0.00 | 2.29 | 2.29 | 99 | 992.8 |
| 20260507160738 | 20 | 92 | 0.0 | 0.0 | 0.00 | 2.29 | 2.29 | 99 | 992.7 |
| 20260507160235 | 20 | 92 | 0.0 | 0.0 | 0.00 | 2.29 | 2.29 | 99 | 992.4 |
| 20260507155731 | 20 | 53 | 1.6 | 3.2 | 0.00 | 2.29 | 2.29 | 99 | 992.2 |
| 20260507155227 | 20 | 76 | 0.0 | 0.0 | 0.00 | 2.29 | 2.29 | 99 | 991.9 |
| 20260507154724 | 18 | 103 | 1.6 | 1.6 | 0.00 | 2.29 | 2.29 | 99 | 992.0 |
| 20260507154222 | 19 | 95 | 1.6 | 1.6 | 0.00 | 2.29 | 2.29 | 99 | 992.0 |
| 20260507153718 | 19 | 94 | 0.0 | 1.6 | 0.00 | 2.29 | 2.29 | 99 | 992.1 |
| 20260507153214 | 19 | 82 | 0.0 | 0.0 | 0.18 | 2.29 | 2.29 | 99 | 992.4 |
| 20260507152711 | 19 | 89 | 0.0 | 0.0 | 0.18 | 2.29 | 2.29 | 99 | 992.5 |
| 20260507152207 | 18 | 113 | 1.6 | 1.6 | 0.00 | 2.26 | 2.26 | 99 | 992.8 |
| 20260507151703 | 18 | 119 | 1.6 | 1.6 | 0.13 | 2.26 | 2.26 | 99 | 993.5 |
| 20260507151200 | 18 | 103 | 0.0 | 0.0 | 0.13 | 2.26 | 2.26 | 99 | 993.6 |
| 20260507150657 | 18 | 111 | 0.0 | 0.0 | 0.18 | 2.24 | 2.24 | 99 | 993.9 |
| 20260507150154 | 18 | 108 | 0.0 | 0.0 | 0.18 | 2.24 | 2.24 | 99 | 993.8 |
| 20260507145649 | 18 | 104 | 0.0 | 0.0 | 0.00 | 2.21 | 2.21 | 99 | 993.9 |
| 20260507145147 | 18 | 99 | 0.0 | 0.0 | 0.00 | 2.21 | 2.21 | 99 | 993.9 |
| 20260507144643 | 18 | 96 | 0.0 | 0.0 | 0.13 | 2.21 | 2.21 | 99 | 994.0 |
| 20260507144141 | 18 | 110 | 0.0 | 1.6 | 0.13 | 2.21 | 2.21 | 99 | 994.1 |
| 20260507143637 | 18 | 144 | 3.2 | 3.2 | 0.00 | 2.18 | 2.18 | 99 | 994.0 |
| 20260507143135 | 18 | 107 | 0.0 | 0.0 | 0.00 | 2.18 | 2.18 | 99 | 993.6 |
| 20260507142630 | 18 | 94 | 0.0 | 0.0 | 0.00 | 2.18 | 2.18 | 99 | 993.7 |
| 20260507142127 | 18 | 174 | 3.2 | 3.2 | 0.00 | 2.18 | 2.18 | 99 | 993.6 |
| 20260507141623 | 18 | 83 | 0.0 | 0.0 | 0.00 | 2.18 | 2.18 | 99 | 993.5 |
| 20260507141120 | 18 | 111 | 0.0 | 0.0 | 0.00 | 2.18 | 2.18 | 99 | 993.4 |
| 20260507140617 | 18 | 103 | 0.0 | 0.0 | 0.00 | 2.18 | 2.18 | 99 | 993.4 |
| 20260507140114 | 18 | 121 | 3.2 | 3.2 | 0.18 | 2.18 | 2.18 | 99 | 993.0 |
| 20260507135611 | 18 | 95 | 0.0 | 0.0 | 0.18 | 2.18 | 2.18 | 99 | 993.2 |
| 20260507135109 | 18 | 95 | 0.0 | 0.0 | 0.18 | 2.18 | 2.18 | 99 | 993.4 |
| 20260507134605 | 18 | 102 | 0.0 | 1.6 | 0.00 | 2.16 | 2.16 | 99 | 993.6 |
| 20260507134101 | 18 | 94 | 0.0 | 0.0 | 0.00 | 2.16 | 2.16 | 99 | 993.4 |
| 20260507133557 | 18 | 92 | 0.0 | 0.0 | 0.00 | 2.16 | 2.16 | 99 | 993.9 |
| 20260507133055 | 18 | 103 | 0.0 | 0.0 | 0.13 | 2.16 | 2.16 | 99 | 993.9 |
| 20260507132551 | 18 | 96 | 0.0 | 0.0 | 0.13 | 2.16 | 2.16 | 99 | 993.4 |
| 20260507132048 | 18 | 99 | 0.0 | 0.0 | 0.00 | 2.13 | 2.13 | 99 | 993.5 |
| 20260507131545 | 18 | 100 | 0.0 | 0.0 | 0.00 | 2.13 | 2.13 | 99 | 993.5 |
| 20260507131042 | 18 | 96 | 0.0 | 0.0 | 0.00 | 2.13 | 2.13 | 99 | 993.6 |
| 20260507130539 | 18 | 98 | 0.0 | 0.0 | 0.18 | 2.13 | 2.13 | 99 | 993.6 |
| 20260507130037 | 18 | 90 | 0.0 | 0.0 | 0.18 | 2.13 | 2.13 | 99 | 993.8 |